contact:dominique.lefevre@mio.osupytheas.fr, maurice.libes@osupytheas.fr, didier.mallarino@osupytheas.fr
Project:EMSO http://www.emso-fr.org/EMSO-France
Depth: 2436.0 m
Title:EMSO Ligure Ouest : Data MII capteur AQUADOPP
Date,Latitude,Longitude,X_East,Y_North,Z_Up,Amplitude_X,Amplitude_Y,Amplitude_Z,Batterie,SoundSpeed,Heading,Pitch,Roll,Pressure,TIS,Speed,Direction
, degrees North, degrees East, m.s-1, m.s-1,m.s-1, 1, 1, 1, Volt, m.s-1, degree, degree, degree, dbar, degree_C, m.s-1, degree
2019-08-05T00:00:41,42.805,6.029,-0.067,0.043,-0.017,104.0,111.0,98.0,13.4,1505.3,323.8,-0.8,1.9,2470.204,13.33,0.079,302.7
2019-08-05T00:03:42,42.805,6.029,-0.033,0.021,-0.013,101.0,111.0,98.0,13.4,1505.3,325.2,-0.7,1.8,2470.186,13.33,0.039,302.5
2019-08-05T00:06:43,42.805,6.029,-0.048,0.015,-0.022,101.0,111.0,98.0,13.4,1505.3,326.6,-0.7,1.8,2470.179,13.33,0.05,287.4
2019-08-05T00:09:44,42.805,6.029,-0.051,0.029,-0.03,101.0,111.0,100.0,13.4,1505.3,325.2,-0.7,1.8,2470.152,13.33,0.058,299.6
2019-08-05T00:12:45,42.805,6.029,-0.031,0.018,-0.003,102.0,111.0,99.0,13.4,1505.3,326.7,-0.7,1.8,2470.154,13.33,0.035,300.1
2019-08-05T00:15:46,42.805,6.029,-0.056,0.002,-0.036,101.0,112.0,99.0,13.4,1505.3,323.2,-0.7,1.8,2470.159,13.33,0.056,272.0
2019-08-05T00:18:47,42.805,6.029,-0.007,0.016,-0.003,102.0,111.0,99.0,13.4,1505.3,324.9,-0.7,1.9,2470.125,13.33,0.017,336.4
2019-08-05T00:21:48,42.805,6.029,-0.042,0.02,-0.068,102.0,109.0,98.0,13.3,1505.3,324.4,-0.7,1.8,2470.175,13.33,0.046,295.5
2019-08-05T00:24:49,42.805,6.029,-0.021,0.014,-0.007,102.0,110.0,99.0,13.4,1505.3,324.5,-0.7,1.8,2470.169,13.33,0.025,303.7
2019-08-05T00:27:50,42.805,6.029,-0.026,0.04,-0.035,103.0,110.0,100.0,13.3,1505.3,325.1,-0.7,1.8,2470.173,13.33,0.047,327.0
2019-08-05T00:30:51,42.805,6.029,-0.047,0.019,-0.023,103.0,111.0,99.0,13.4,1505.3,326.6,-0.7,1.8,2470.156,13.33,0.05,292.0
2019-08-05T00:33:52,42.805,6.029,-0.042,0.009,0.005,102.0,110.0,99.0,13.3,1505.3,326.5,-0.7,1.8,2470.178,13.33,0.042,282.1
2019-08-05T00:36:53,42.805,6.029,-0.043,0.031,0.0,103.0,110.0,99.0,13.3,1505.3,325.0,-0.7,1.8,2470.118,13.33,0.053,305.8
2019-08-05T00:39:54,42.805,6.029,-0.028,0.03,-0.005,101.0,112.0,99.0,13.4,1505.3,327.3,-0.8,1.9,2470.127,13.33,0.041,317.0
2019-08-05T00:42:55,42.805,6.029,-0.027,0.017,-0.007,102.0,110.0,98.0,13.3,1505.3,324.7,-0.7,1.8,2470.154,13.33,0.031,302.2
2019-08-05T00:45:56,42.805,6.029,-0.035,0.033,-0.013,101.0,110.0,98.0,13.3,1505.3,324.6,-0.7,1.9,2470.122,13.33,0.048,313.3
2019-08-05T00:48:57,42.805,6.029,-0.042,0.009,-0.014,102.0,110.0,99.0,13.4,1505.3,326.6,-0.7,1.9,2470.176,13.33,0.042,282.1
2019-08-05T00:51:58,42.805,6.029,-0.046,0.015,-0.013,102.0,111.0,98.0,13.4,1505.3,326.5,-0.7,1.8,2470.135,13.33,0.048,288.1
2019-08-05T00:54:59,42.805,6.029,-0.01,0.031,0.003,102.0,110.0,99.0,13.3,1505.3,324.7,-0.7,1.8,2470.165,13.33,0.032,342.1
2019-08-05T00:58:00,42.805,6.029,-0.072,0.021,-0.036,101.0,111.0,99.0,13.4,1505.3,325.7,-0.8,1.8,2470.105,13.33,0.074,286.3
2019-08-05T01:01:01,42.805,6.029,-0.044,0.033,-0.002,102.0,111.0,99.0,13.4,1505.3,327.1,-0.7,1.9,2470.121,13.33,0.055,306.9
2019-08-05T01:04:02,42.805,6.029,-0.019,0.015,-0.001,102.0,110.0,100.0,13.4,1505.3,322.9,-0.8,1.9,2470.13,13.33,0.024,308.3
2019-08-05T01:07:03,42.805,6.029,-0.001,0.014,0.026,103.0,111.0,99.0,13.3,1505.3,328.5,-0.7,1.8,2470.173,13.33,0.014,355.9
2019-08-05T01:10:04,42.805,6.029,-0.036,0.026,0.001,103.0,110.0,100.0,13.4,1505.3,324.9,-0.7,1.8,2470.116,13.33,0.044,305.8
2019-08-05T01:13:05,42.805,6.029,-0.038,0.014,-0.021,103.0,109.0,98.0,13.4,1505.3,323.4,-0.7,1.8,2470.1,13.33,0.04,290.2
2019-08-05T01:16:06,42.805,6.029,-0.02,0.034,0.0,104.0,111.0,99.0,13.4,1505.3,327.9,-0.7,1.9,2470.123,13.33,0.039,329.5
2019-08-05T01:19:07,42.805,6.029,-0.039,0.026,0.004,101.0,111.0,99.0,13.3,1505.3,326.3,-0.7,1.8,2470.138,13.33,0.046,303.7
2019-08-05T01:22:08,42.805,6.029,-0.023,0.03,0.017,102.0,111.0,99.0,13.3,1505.3,326.5,-0.7,1.8,2470.115,13.33,0.037,322.5
2019-08-05T01:25:09,42.805,6.029,-0.039,0.015,-0.021,101.0,110.0,99.0,13.4,1505.3,327.4,-0.7,1.8,2470.13,13.33,0.041,291.0
2019-08-05T01:28:10,42.805,6.029,-0.038,0.005,-0.012,102.0,110.0,98.0,13.4,1505.3,327.2,-0.7,1.8,2470.106,13.33,0.038,277.5
2019-08-05T01:31:11,42.805,6.029,-0.04,0.023,-0.035,102.0,110.0,99.0,13.4,1505.3,326.2,-0.7,1.9,2470.091,13.33,0.046,299.9
2019-08-05T01:34:12,42.805,6.029,-0.046,0.01,0.016,101.0,111.0,98.0,13.3,1505.3,328.4,-0.7,1.8,2470.113,13.33,0.047,282.3
2019-08-05T01:37:13,42.805,6.029,-0.063,0.014,-0.053,103.0,112.0,99.0,13.4,1505.3,328.7,-0.7,1.8,2470.104,13.33,0.064,282.5
2019-08-05T01:40:14,42.805,6.029,-0.026,0.039,-0.022,102.0,112.0,100.0,13.4,1505.3,325.6,-0.7,1.8,2470.056,13.33,0.046,326.3
2019-08-05T01:43:15,42.805,6.029,-0.035,0.023,-0.018,103.0,110.0,100.0,13.3,1505.3,326.4,-0.7,1.9,2470.096,13.33,0.041,303.3
2019-08-05T01:46:16,42.805,6.029,-0.056,0.021,-0.049,102.0,111.0,98.0,13.3,1505.3,324.9,-0.7,1.9,2470.147,13.33,0.059,290.6
2019-08-05T01:49:17,42.805,6.029,-0.018,0.023,0.003,102.0,110.0,98.0,13.3,1505.3,324.9,-0.7,1.8,2470.082,13.33,0.029,322.0
2019-08-05T01:52:18,42.805,6.029,-0.055,0.034,-0.014,103.0,110.0,99.0,13.4,1505.3,326.8,-0.7,1.8,2470.083,13.33,0.064,301.7
2019-08-05T01:55:19,42.805,6.029,-0.057,0.028,-0.018,102.0,110.0,98.0,13.4,1505.3,325.5,-0.7,1.9,2470.095,13.33,0.063,296.2
2019-08-05T01:58:20,42.805,6.029,-0.034,0.017,0.009,102.0,110.0,98.0,13.4,1505.3,324.8,-0.7,1.8,2470.084,13.33,0.038,296.6
2019-08-05T02:01:21,42.805,6.029,-0.033,0.003,-0.021,102.0,110.0,98.0,13.4,1505.3,326.7,-0.7,1.9,2470.094,13.33,0.033,275.2
2019-08-05T02:04:22,42.805,6.029,-0.016,0.018,-0.005,103.0,110.0,101.0,13.4,1505.3,324.9,-0.7,1.9,2470.071,13.33,0.024,318.4
2019-08-05T02:07:23,42.805,6.029,-0.043,0.033,-0.022,103.0,109.0,99.0,13.4,1505.3,326.8,-0.7,1.8,2470.077,13.33,0.054,307.5
2019-08-05T02:10:24,42.805,6.029,-0.036,0.018,0.006,101.0,112.0,99.0,13.3,1505.3,326.9,-0.7,1.9,2470.107,13.33,0.04,296.6
2019-08-05T02:13:25,42.805,6.029,-0.018,0.019,-0.002,103.0,111.0,100.0,13.4,1505.3,325.3,-0.7,1.9,2470.082,13.33,0.026,316.5
2019-08-05T02:16:26,42.805,6.029,-0.03,0.021,-0.017,102.0,110.0,100.0,13.4,1505.3,324.2,-0.7,1.8,2470.061,13.33,0.036,305.0
2019-08-05T02:19:27,42.805,6.029,-0.026,0.013,0.0,103.0,108.0,99.0,13.4,1505.3,325.0,-0.7,1.8,2470.071,13.33,0.029,296.6
2019-08-05T02:22:28,42.805,6.029,-0.019,0.031,-0.049,104.0,111.0,98.0,13.4,1505.3,324.8,-0.7,1.8,2470.046,13.33,0.036,328.5
2019-08-05T02:25:29,42.805,6.029,-0.036,0.021,0.002,103.0,110.0,100.0,13.3,1505.3,325.4,-0.7,1.9,2470.048,13.33,0.041,300.3
2019-08-05T02:28:30,42.805,6.029,-0.028,0.014,-0.029,102.0,109.0,99.0,13.4,1505.3,326.6,-0.7,1.9,2470.083,13.33,0.031,296.6
2019-08-05T02:31:31,42.805,6.029,-0.048,0.017,0.003,103.0,111.0,98.0,13.3,1505.3,325.3,-0.8,1.8,2470.057,13.33,0.05,289.5
2019-08-05T02:34:32,42.805,6.029,-0.027,0.027,0.002,101.0,110.0,100.0,13.3,1505.3,324.7,-0.8,1.8,2470.09,13.33,0.038,315.0
2019-08-05T02:37:33,42.805,6.029,-0.023,0.031,-0.01,102.0,111.0,99.0,13.4,1505.3,325.0,-0.7,1.9,2470.104,13.33,0.038,323.4
2019-08-05T02:40:34,42.805,6.029,-0.019,0.022,-0.015,103.0,110.0,99.0,13.4,1505.3,328.0,-0.7,1.8,2470.063,13.33,0.029,319.2
2019-08-05T02:43:35,42.805,6.029,-0.05,0.017,0.002,103.0,109.0,99.0,13.4,1505.3,324.9,-0.7,1.8,2470.064,13.33,0.052,288.8
2019-08-05T02:46:36,42.805,6.029,-0.025,0.016,-0.039,101.0,110.0,100.0,13.3,1505.3,326.4,-0.7,1.8,2470.048,13.33,0.029,302.6
2019-08-05T02:49:37,42.805,6.029,-0.02,0.024,-0.001,103.0,110.0,99.0,13.4,1505.3,324.9,-0.7,1.8,2470.051,13.33,0.031,320.2
2019-08-05T02:52:38,42.805,6.029,-0.019,0.013,0.01,103.0,110.0,99.0,13.4,1505.3,326.4,-0.7,1.8,2470.037,13.33,0.023,304.4
2019-08-05T02:55:39,42.805,6.029,-0.029,0.021,-0.014,103.0,110.0,99.0,13.4,1505.3,325.0,-0.7,1.8,2470.056,13.33,0.035,305.9
2019-08-05T02:58:40,42.805,6.029,0.012,0.047,0.023,103.0,111.0,100.0,13.3,1505.3,327.5,-0.7,1.8,2470.044,13.33,0.048,14.3
2019-08-05T03:01:41,42.805,6.029,-0.043,0.037,0.003,103.0,110.0,100.0,13.4,1505.3,324.4,-0.7,1.8,2469.999,13.33,0.056,310.7
2019-08-05T03:04:42,42.805,6.029,-0.035,0.011,-0.026,103.0,110.0,99.0,13.3,1505.3,327.0,-0.7,1.8,2470.048,13.33,0.036,287.4
2019-08-05T03:07:43,42.805,6.029,-0.04,0.012,0.007,101.0,111.0,99.0,13.4,1505.3,324.7,-0.7,1.8,2470.027,13.33,0.041,286.7
2019-08-05T03:10:44,42.805,6.029,-0.054,0.013,0.011,102.0,110.0,99.0,13.4,1505.3,323.6,-0.7,1.8,2470.077,13.33,0.055,283.5
2019-08-05T03:13:45,42.805,6.029,-0.035,0.005,-0.049,104.0,110.0,99.0,13.4,1505.3,326.6,-0.7,1.9,2470.018,13.33,0.035,278.1
2019-08-05T03:16:46,42.805,6.029,-0.031,0.027,0.005,103.0,110.0,101.0,13.4,1505.3,327.1,-0.7,1.9,2470.024,13.33,0.041,311.1
2019-08-05T03:19:47,42.805,6.029,-0.059,0.034,-0.02,102.0,110.0,100.0,13.3,1505.3,326.7,-0.7,1.8,2470.014,13.33,0.068,300.0
2019-08-05T03:22:48,42.805,6.029,-0.071,0.022,-0.041,103.0,108.0,99.0,13.3,1505.3,325.6,-0.7,1.8,2470.017,13.33,0.074,287.2
2019-08-05T03:25:49,42.805,6.029,-0.047,0.02,-0.019,104.0,107.0,99.0,13.4,1505.3,324.6,-0.7,1.8,2470.014,13.33,0.051,293.0
2019-08-05T03:28:50,42.805,6.029,-0.02,0.028,0.008,103.0,110.0,99.0,13.3,1505.3,328.0,-0.8,1.8,2470.079,13.33,0.034,324.5
2019-08-05T03:31:51,42.805,6.029,-0.054,0.021,-0.019,102.0,110.0,99.0,13.3,1505.3,324.7,-0.7,1.8,2470.04,13.33,0.057,291.2
2019-08-05T03:34:52,42.805,6.029,-0.03,0.043,-0.022,102.0,108.0,99.0,13.3,1505.3,324.5,-0.7,1.8,2470.014,13.33,0.052,325.1
2019-08-05T03:37:53,42.805,6.029,-0.028,0.017,-0.011,103.0,108.0,98.0,13.4,1505.3,324.6,-0.7,1.9,2470.026,13.33,0.032,301.3
2019-08-05T03:40:54,42.805,6.029,-0.021,0.022,-0.032,102.0,109.0,99.0,13.4,1505.3,325.1,-0.7,1.8,2470.065,13.33,0.03,316.3
2019-08-05T03:43:55,42.805,6.029,-0.033,0.03,-0.02,102.0,109.0,99.0,13.4,1505.3,327.8,-0.7,1.8,2470.038,13.33,0.044,312.3
2019-08-05T03:46:56,42.805,6.029,-0.006,0.039,0.032,103.0,108.0,98.0,13.4,1505.3,328.3,-0.7,1.8,2469.991,13.33,0.039,351.3
2019-08-05T03:49:57,42.805,6.029,-0.014,0.018,0.024,102.0,109.0,99.0,13.3,1505.3,327.6,-0.6,1.8,2470.019,13.33,0.022,322.1
2019-08-05T03:52:58,42.805,6.029,-0.016,0.018,0.004,104.0,110.0,98.0,13.3,1505.3,327.9,-0.7,1.8,2470.017,13.33,0.024,318.4
2019-08-05T03:55:59,42.805,6.029,-0.072,0.014,-0.037,102.0,109.0,98.0,13.4,1505.3,327.5,-0.7,1.8,2470.037,13.33,0.073,281.0
2019-08-05T03:59:00,42.805,6.029,-0.018,0.019,0.002,103.0,108.0,100.0,13.4,1505.3,324.9,-0.7,1.8,2470.018,13.33,0.026,316.5
2019-08-05T04:02:01,42.805,6.029,-0.034,0.024,0.007,102.0,109.0,100.0,13.3,1505.3,328.0,-0.7,1.8,2470.004,13.33,0.041,305.2
2019-08-05T04:05:02,42.805,6.029,-0.045,0.015,-0.045,102.0,109.0,99.0,13.3,1505.3,324.7,-0.7,1.8,2470.012,13.33,0.047,288.4
2019-08-05T04:08:03,42.805,6.029,-0.08,0.019,-0.071,103.0,108.0,98.0,13.4,1505.3,325.5,-0.7,1.8,2469.996,13.33,0.082,283.4
2019-08-05T04:11:04,42.805,6.029,-0.018,0.02,0.01,104.0,109.0,99.0,13.4,1505.3,327.8,-0.7,1.8,2469.977,13.33,0.026,318.0
2019-08-05T04:14:05,42.805,6.029,-0.052,0.012,-0.029,102.0,109.0,99.0,13.3,1505.3,324.5,-0.7,1.8,2469.987,13.33,0.053,283.0
2019-08-05T04:17:06,42.805,6.029,-0.022,0.012,-0.008,103.0,110.0,100.0,13.3,1505.3,325.1,-0.7,1.8,2469.982,13.33,0.025,298.6
2019-08-05T04:20:07,42.805,6.029,-0.071,0.023,-0.045,102.0,108.0,98.0,13.3,1505.3,327.1,-0.7,1.8,2469.955,13.33,0.074,287.9
2019-08-05T04:23:08,42.805,6.029,-0.032,0.016,-0.007,102.0,109.0,99.0,13.4,1505.3,324.7,-0.7,1.8,2469.989,13.33,0.035,296.6
2019-08-05T04:26:09,42.805,6.029,-0.054,0.019,-0.073,101.0,107.0,99.0,13.3,1505.3,325.9,-0.7,1.8,2470.004,13.33,0.057,289.4
2019-08-05T04:29:10,42.805,6.029,-0.062,0.02,-0.022,103.0,108.0,99.0,13.4,1505.3,325.9,-0.7,1.8,2470.009,13.33,0.065,287.9
2019-08-05T04:32:11,42.805,6.029,-0.025,0.015,-0.025,101.0,107.0,98.0,13.4,1505.3,324.8,-0.7,1.8,2469.963,13.33,0.029,301.0
2019-08-05T04:35:12,42.805,6.029,-0.044,0.009,-0.03,101.0,107.0,99.0,13.4,1505.3,324.7,-0.7,1.8,2470.015,13.33,0.044,281.6
2019-08-05T04:38:13,42.805,6.029,-0.06,0.017,-0.006,101.0,106.0,98.0,13.3,1505.3,325.2,-0.7,1.9,2469.975,13.33,0.062,285.8
2019-08-05T04:41:14,42.805,6.029,-0.075,0.035,-0.046,101.0,109.0,98.0,13.4,1505.3,326.3,-0.7,1.8,2470.006,13.33,0.082,295.0
2019-08-05T04:44:15,42.805,6.029,-0.013,0.006,-0.041,102.0,106.0,98.0,13.3,1505.3,325.2,-0.7,1.8,2470.003,13.33,0.014,294.8
2019-08-05T04:47:16,42.805,6.029,-0.04,0.017,-0.027,102.0,106.0,99.0,13.3,1505.3,323.7,-0.7,1.8,2469.974,13.33,0.043,293.0
2019-08-05T04:50:17,42.805,6.029,-0.038,0.021,-0.002,101.0,108.0,98.0,13.4,1505.3,325.7,-0.7,1.8,2470.0,13.33,0.043,298.9
2019-08-05T04:53:18,42.805,6.029,-0.036,0.014,0.023,103.0,106.0,98.0,13.3,1505.3,326.7,-0.7,1.8,2469.974,13.33,0.038,291.2
2019-08-05T04:56:19,42.805,6.029,-0.049,0.029,-0.016,103.0,106.0,100.0,13.3,1505.3,325.3,-0.7,1.9,2470.027,13.33,0.056,300.6
2019-08-05T04:59:20,42.805,6.029,-0.043,0.026,0.0,103.0,109.0,98.0,13.3,1505.3,326.5,-0.7,1.8,2470.013,13.33,0.05,301.2
2019-08-05T05:02:21,42.805,6.029,-0.045,0.027,-0.012,102.0,107.0,99.0,13.3,1505.3,323.4,-0.7,1.8,2470.002,13.33,0.052,301.0
2019-08-05T05:05:22,42.805,6.029,-0.015,0.016,0.005,102.0,106.0,98.0,13.4,1505.3,323.7,-0.7,1.8,2469.98,13.33,0.021,316.9
2019-08-05T05:08:23,42.805,6.029,-0.048,0.005,-0.014,102.0,107.0,98.0,13.3,1505.3,324.7,-0.7,1.8,2470.005,13.33,0.048,275.9
2019-08-05T05:11:24,42.805,6.029,-0.06,0.023,-0.04,101.0,109.0,99.0,13.3,1505.3,328.5,-0.7,1.9,2469.95,13.33,0.064,291.0
2019-08-05T05:14:25,42.805,6.029,0.003,0.018,0.004,101.0,107.0,99.0,13.4,1505.3,326.9,-0.7,1.8,2469.988,13.33,0.018,9.5
2019-08-05T05:17:26,42.805,6.029,-0.021,0.019,0.003,100.0,110.0,100.0,13.3,1505.3,325.0,-0.7,1.8,2470.035,13.33,0.028,312.1
2019-08-05T05:20:27,42.805,6.029,-0.065,0.033,-0.013,102.0,109.0,98.0,13.4,1505.3,327.7,-0.7,1.8,2469.987,13.33,0.072,296.9
2019-08-05T05:23:28,42.805,6.029,-0.02,0.019,0.007,102.0,107.0,100.0,13.4,1505.3,328.6,-0.7,1.8,2469.977,13.33,0.027,313.5
2019-08-05T05:26:29,42.805,6.029,-0.031,0.011,-0.035,103.0,108.0,99.0,13.4,1505.3,327.2,-0.7,1.8,2469.965,13.33,0.032,289.5
2019-08-05T05:29:30,42.805,6.029,-0.023,0.012,-0.008,101.0,109.0,99.0,13.4,1505.3,325.4,-0.7,1.8,2470.0,13.33,0.025,297.6
2019-08-05T05:32:31,42.805,6.029,-0.044,0.023,-0.014,103.0,109.0,100.0,13.3,1505.3,327.5,-0.7,1.8,2469.977,13.33,0.049,297.6
2019-08-05T05:35:32,42.805,6.029,-0.023,0.022,-0.016,102.0,107.0,98.0,13.4,1505.3,325.0,-0.7,1.8,2469.963,13.33,0.031,313.7
2019-08-05T05:38:33,42.805,6.029,-0.047,0.014,-0.008,103.0,108.0,98.0,13.4,1505.3,325.1,-0.7,1.8,2469.958,13.33,0.049,286.6
2019-08-05T05:41:34,42.805,6.029,-0.043,0.004,-0.005,101.0,109.0,100.0,13.4,1505.3,327.8,-0.7,1.8,2469.996,13.33,0.043,275.3
2019-08-05T05:44:35,42.805,6.029,-0.054,0.03,-0.015,103.0,109.0,99.0,13.4,1505.3,325.3,-0.7,1.8,2469.992,13.33,0.061,299.1
2019-08-05T05:47:36,42.805,6.029,-0.037,0.03,-0.021,104.0,109.0,100.0,13.3,1505.3,323.5,-0.7,1.8,2470.022,13.33,0.047,309.0
2019-08-05T05:50:37,42.805,6.029,-0.049,0.011,-0.044,103.0,112.0,98.0,13.4,1505.3,323.4,-0.7,1.8,2469.986,13.33,0.05,282.7
2019-08-05T05:53:38,42.805,6.029,-0.017,0.023,-0.028,103.0,114.0,98.0,13.4,1505.3,324.2,-0.7,1.8,2469.923,13.33,0.028,323.5
2019-08-05T05:56:39,42.805,6.029,-0.026,0.001,0.023,102.0,109.0,99.0,13.4,1505.3,326.9,-0.7,1.8,2469.969,13.33,0.026,272.2
2019-08-05T05:59:40,42.805,6.029,-0.058,0.023,-0.039,104.0,110.0,99.0,13.4,1505.3,323.2,-0.7,1.8,2469.971,13.33,0.062,291.6
2019-08-05T06:02:41,42.805,6.029,-0.059,0.013,-0.021,103.0,110.0,99.0,13.4,1505.3,326.8,-0.7,1.8,2469.981,13.33,0.06,282.4
2019-08-05T06:05:42,42.805,6.029,-0.053,0.011,-0.054,102.0,110.0,100.0,13.3,1505.3,324.8,-0.7,1.8,2470.008,13.33,0.054,281.7
2019-08-05T06:08:43,42.805,6.029,-0.06,0.023,-0.032,102.0,109.0,99.0,13.4,1505.3,327.4,-0.7,1.8,2469.995,13.33,0.064,291.0
2019-08-05T06:11:44,42.805,6.029,-0.044,0.016,-0.016,104.0,109.0,100.0,13.4,1505.3,326.8,-0.7,1.8,2469.942,13.33,0.046,290.0
2019-08-05T06:14:45,42.805,6.029,-0.021,0.013,-0.019,103.0,110.0,99.0,13.4,1505.3,325.7,-0.7,1.8,2469.999,13.33,0.024,301.8
2019-08-05T06:17:46,42.805,6.029,-0.044,0.016,-0.011,104.0,109.0,99.0,13.3,1505.3,326.5,-0.7,1.8,2469.967,13.33,0.046,290.0
2019-08-05T06:20:47,42.805,6.029,-0.038,0.022,-0.011,102.0,108.0,100.0,13.4,1505.3,326.2,-0.7,1.8,2469.96,13.33,0.043,300.1
2019-08-05T06:23:48,42.805,6.029,-0.053,0.031,-0.019,103.0,110.0,101.0,13.4,1505.3,327.7,-0.7,1.8,2470.002,13.33,0.061,300.3
2019-08-05T06:26:49,42.805,6.029,-0.008,0.034,0.0,102.0,112.0,100.0,13.4,1505.3,327.8,-0.7,1.9,2469.996,13.33,0.034,346.8
2019-08-05T06:29:50,42.805,6.029,-0.073,0.009,-0.028,103.0,108.0,100.0,13.4,1505.3,324.7,-0.7,1.9,2470.045,13.33,0.073,277.0
2019-08-05T06:32:51,42.805,6.029,-0.022,0.026,0.0,103.0,111.0,99.0,13.4,1505.3,327.8,-0.7,1.8,2470.003,13.33,0.034,319.8
2019-08-05T06:35:52,42.805,6.029,-0.032,0.033,-0.016,101.0,111.0,99.0,13.4,1505.3,325.8,-0.7,1.8,2470.016,13.33,0.045,315.9
2019-08-05T06:38:53,42.805,6.029,-0.058,0.024,-0.014,103.0,111.0,100.0,13.4,1505.3,325.3,-0.7,1.8,2469.992,13.33,0.062,292.5
2019-08-05T06:41:54,42.805,6.029,-0.048,0.005,-0.036,103.0,112.0,99.0,13.4,1505.3,328.2,-0.7,1.8,2469.986,13.33,0.048,275.9
2019-08-05T06:44:55,42.805,6.029,-0.04,0.026,0.0,101.0,110.0,103.0,13.4,1505.3,326.4,-0.7,1.8,2470.011,13.33,0.047,303.0
2019-08-05T06:47:56,42.805,6.029,-0.042,0.031,-0.023,104.0,110.0,99.0,13.3,1505.3,325.2,-0.7,1.8,2469.979,13.33,0.052,306.4
2019-08-05T06:50:57,42.805,6.029,-0.051,0.024,-0.017,102.0,110.0,99.0,13.4,1505.3,327.4,-0.7,1.8,2470.039,13.33,0.056,295.2
2019-08-05T06:53:58,42.805,6.029,-0.037,0.019,-0.001,101.0,111.0,98.0,13.4,1505.3,325.1,-0.8,1.8,2470.035,13.33,0.041,297.2
2019-08-05T06:56:59,42.805,6.029,-0.036,0.002,-0.033,104.0,109.0,98.0,13.3,1505.3,323.2,-0.7,1.8,2470.011,13.33,0.036,273.2
2019-08-05T07:00:00,42.805,6.029,-0.048,0.015,-0.007,104.0,108.0,100.0,13.4,1505.3,326.9,-0.7,1.8,2469.993,13.33,0.05,287.4
2019-08-05T07:03:01,42.805,6.029,-0.04,0.015,-0.018,102.0,109.0,99.0,13.3,1505.3,324.7,-0.7,1.8,2470.023,13.33,0.042,290.6
2019-08-05T07:06:02,42.805,6.029,-0.037,0.031,-0.015,103.0,108.0,100.0,13.4,1505.3,324.5,-0.7,1.8,2470.085,13.33,0.048,310.0
2019-08-05T07:09:03,42.805,6.029,-0.035,0.025,0.0,103.0,110.0,98.0,13.3,1505.3,326.0,-0.7,1.8,2469.996,13.33,0.043,305.5
2019-08-05T07:12:04,42.805,6.029,-0.035,0.011,-0.019,101.0,110.0,99.0,13.3,1505.3,324.6,-0.7,1.8,2470.0,13.33,0.036,287.4
2019-08-05T07:15:05,42.805,6.029,-0.044,0.003,-0.007,102.0,109.0,99.0,13.3,1505.3,326.9,-0.7,1.9,2470.002,13.33,0.044,273.9
2019-08-05T07:18:06,42.805,6.029,-0.032,0.039,0.009,103.0,110.0,99.0,13.4,1505.3,328.4,-0.7,1.9,2470.041,13.33,0.05,320.6
2019-08-05T07:21:07,42.805,6.029,-0.052,0.014,-0.036,103.0,110.0,99.0,13.4,1505.3,328.5,-0.7,1.8,2470.07,13.33,0.053,285.1
2019-08-05T07:24:08,42.805,6.029,-0.034,0.014,-0.008,102.0,111.0,99.0,13.4,1505.3,325.2,-0.7,1.9,2470.037,13.33,0.036,292.4
2019-08-05T07:27:09,42.805,6.029,-0.018,0.037,-0.006,103.0,109.0,98.0,13.3,1505.3,326.4,-0.7,1.9,2470.013,13.33,0.041,334.1
2019-08-05T07:30:10,42.805,6.029,-0.048,0.035,-0.011,102.0,111.0,99.0,13.3,1505.3,325.3,-0.7,1.9,2470.038,13.33,0.059,306.1
2019-08-05T07:33:11,42.805,6.029,-0.042,0.012,-0.016,103.0,108.0,99.0,13.4,1505.3,326.1,-0.7,1.8,2470.009,13.33,0.043,285.9
2019-08-05T07:36:12,42.805,6.029,-0.05,0.021,-0.017,103.0,111.0,100.0,13.4,1505.3,327.9,-0.7,1.9,2470.055,13.33,0.054,292.8
2019-08-05T07:39:13,42.805,6.029,-0.038,0.009,0.005,103.0,109.0,99.0,13.4,1505.3,325.7,-0.7,1.8,2470.032,13.33,0.039,283.3
2019-08-05T07:42:14,42.805,6.029,-0.042,0.021,-0.035,104.0,112.0,99.0,13.3,1505.3,324.5,-0.7,1.8,2470.034,13.33,0.046,296.6
2019-08-05T07:45:15,42.805,6.029,-0.029,0.044,0.01,103.0,112.0,100.0,13.4,1505.3,327.8,-0.7,1.8,2470.063,13.33,0.052,326.6
2019-08-05T07:48:16,42.805,6.029,-0.037,0.018,0.027,103.0,111.0,100.0,13.4,1505.3,326.5,-0.7,1.8,2470.07,13.33,0.041,295.9
2019-08-05T07:51:17,42.805,6.029,-0.062,0.031,-0.039,103.0,111.0,99.0,13.4,1505.3,325.8,-0.7,1.8,2470.031,13.33,0.069,296.6
2019-08-05T07:54:18,42.805,6.029,-0.015,0.043,0.037,101.0,111.0,100.0,13.3,1505.3,327.7,-0.7,1.8,2470.072,13.33,0.045,340.8
2019-08-05T07:57:19,42.805,6.029,-0.059,0.036,0.005,103.0,109.0,99.0,13.4,1505.3,324.4,-0.7,1.8,2470.074,13.33,0.069,301.4
2019-08-05T08:00:20,42.805,6.029,-0.055,0.028,-0.019,104.0,111.0,100.0,13.4,1505.3,325.6,-0.7,1.8,2470.038,13.33,0.061,297.0
2019-08-05T08:03:21,42.805,6.029,-0.053,0.028,0.007,104.0,111.0,99.0,13.4,1505.3,325.0,-0.7,1.8,2470.086,13.33,0.059,297.9
2019-08-05T08:06:22,42.805,6.029,-0.059,0.034,-0.03,104.0,111.0,99.0,13.3,1505.3,326.0,-0.7,1.8,2470.135,13.33,0.068,300.0
2019-08-05T08:09:23,42.805,6.029,-0.047,0.031,-0.029,104.0,110.0,99.0,13.4,1505.3,323.5,-0.7,1.8,2470.084,13.33,0.056,303.4
2019-08-05T08:12:24,42.805,6.029,-0.028,0.048,0.003,103.0,111.0,101.0,13.4,1505.3,324.8,-0.7,1.8,2470.091,13.33,0.055,329.7
2019-08-05T08:15:25,42.805,6.029,-0.042,0.028,-0.002,102.0,110.0,100.0,13.3,1505.3,327.5,-0.7,1.8,2470.098,13.33,0.05,303.7
2019-08-05T08:18:26,42.805,6.029,-0.045,0.036,-0.035,102.0,113.0,99.0,13.4,1505.3,327.6,-0.7,1.9,2470.084,13.33,0.057,308.7
2019-08-05T08:21:27,42.805,6.029,-0.055,0.036,-0.006,101.0,113.0,100.0,13.4,1505.3,327.2,-0.8,1.8,2470.112,13.33,0.065,303.2
2019-08-05T08:24:28,42.805,6.029,-0.066,0.031,-0.01,102.0,111.0,99.0,13.4,1505.3,324.1,-0.7,1.8,2470.091,13.33,0.072,295.2
2019-08-05T08:27:29,42.805,6.029,-0.037,0.019,-0.032,102.0,111.0,98.0,13.4,1505.3,324.7,-0.8,1.8,2470.068,13.33,0.041,297.2
2019-08-05T08:30:30,42.805,6.029,-0.04,0.017,-0.017,103.0,109.0,100.0,13.4,1505.3,325.0,-0.8,1.8,2470.093,13.33,0.043,293.0
2019-08-05T08:33:31,42.805,6.029,-0.05,0.034,-0.025,103.0,109.0,100.0,13.4,1505.3,324.2,-0.7,1.8,2470.083,13.33,0.06,304.2
2019-08-05T08:36:32,42.805,6.029,-0.043,0.027,-0.002,105.0,110.0,99.0,13.3,1505.3,324.8,-0.7,1.8,2470.104,13.33,0.05,302.1
2019-08-05T08:39:33,42.805,6.029,-0.035,0.045,0.028,102.0,110.0,100.0,13.4,1505.3,326.9,-0.7,1.8,2470.147,13.33,0.057,322.1
2019-08-05T08:42:34,42.805,6.029,-0.046,0.039,0.01,101.0,112.0,98.0,13.4,1505.3,324.5,-0.7,1.9,2470.087,13.33,0.06,310.3
2019-08-05T08:45:35,42.805,6.029,-0.017,0.017,0.0,103.0,110.0,99.0,13.4,1505.3,324.5,-0.7,1.8,2470.102,13.33,0.024,315.0
2019-08-05T08:48:36,42.805,6.029,-0.048,0.016,0.011,102.0,110.0,99.0,13.4,1505.3,324.7,-0.7,1.9,2470.122,13.33,0.05,288.4
2019-08-05T08:51:37,42.805,6.029,-0.043,0.003,-0.025,100.0,110.0,99.0,13.4,1505.3,323.9,-0.7,1.8,2470.119,13.33,0.043,274.0
2019-08-05T08:54:38,42.805,6.029,-0.06,0.02,-0.006,102.0,109.0,98.0,13.4,1505.3,326.9,-0.7,1.8,2470.161,13.32,0.063,288.4
2019-08-05T08:57:39,42.805,6.029,-0.044,0.042,-0.003,103.0,112.0,99.0,13.4,1505.3,326.5,-0.7,1.8,2470.101,13.33,0.06,313.7
2019-08-05T09:00:40,42.805,6.029,-0.036,0.023,-0.02,102.0,112.0,99.0,13.4,1505.3,326.0,-0.7,1.8,2470.16,13.33,0.042,302.6
2019-08-05T09:03:41,42.805,6.029,-0.058,0.034,0.027,100.0,111.0,100.0,13.4,1505.3,326.3,-0.8,1.8,2470.141,13.33,0.067,300.4
2019-08-05T09:06:42,42.805,6.029,-0.04,0.04,0.0,102.0,112.0,99.0,13.3,1505.3,326.7,-0.7,1.9,2470.108,13.33,0.056,315.0
2019-08-05T09:09:43,42.805,6.029,-0.028,0.044,-0.003,101.0,111.0,98.0,13.4,1505.3,324.7,-0.7,1.8,2470.139,13.33,0.052,327.5
2019-08-05T09:12:44,42.805,6.029,-0.05,0.034,0.003,101.0,109.0,99.0,13.4,1505.3,324.8,-0.7,1.8,2470.133,13.33,0.06,304.2
2019-08-05T09:15:45,42.805,6.029,-0.032,0.028,-0.007,101.0,111.0,99.0,13.4,1505.3,324.1,-0.7,1.8,2470.092,13.33,0.042,311.2
2019-08-05T09:18:46,42.805,6.029,-0.054,-0.015,-0.001,101.0,111.0,99.0,13.4,1505.3,323.5,-0.7,1.9,2470.152,13.33,0.056,254.5
2019-08-05T09:21:47,42.805,6.029,-0.054,0.021,-0.025,101.0,111.0,98.0,13.3,1505.3,325.9,-0.7,1.9,2470.179,13.33,0.057,291.2
2019-08-05T09:24:48,42.805,6.029,-0.02,0.036,0.022,104.0,107.0,98.0,13.3,1505.3,324.3,-0.7,1.8,2470.117,13.33,0.041,330.9
2019-08-05T09:27:49,42.805,6.029,-0.034,0.018,-0.013,101.0,108.0,99.0,13.4,1505.3,324.9,-0.7,1.8,2470.144,13.33,0.038,297.9
2019-08-05T09:30:50,42.805,6.029,-0.038,0.035,0.002,103.0,108.0,98.0,13.4,1505.3,325.8,-0.7,1.9,2470.153,13.33,0.051,312.6